Weather History for North Island, CA

Change the Weather History Date:

Saturday, February 8, 2014

  Actual Average Record
Temperature  
Mean Temperature 62 °F -  
Max Temperature 69 °F 61 °F 78 °F (2006)
Min Temperature 55 °F 48 °F 32 °F (2012)
Degree Days  
Heating Degree Days 3    
Growing Degree Days 12 (Base 50)    
Moisture  
Dew Point 50 °F    
Average Humidity 64    
Maximum Humidity 75    
Minimum Humidity 45    
Precipitation  
Precipitation 0.00 in - - ()
Sea Level Pressure  
Sea Level Pressure 30.22 in    
Wind  
Wind Speed 6 mph (NNW)    
Max Wind Speed 18 mph    
Max Gust Speed -    
Visibility 10 miles    
Events      
Averages and records for this station are not official NWS values.
T = Trace of Precipitation, MM = Missing Value Source: NWS Daily Summary

Daily Weather History Graph

Daily Weather History Graph

Search for Another Location

Airport:

Trip Planner

Search our weather history database for the weather conditions in past years. The results will help you decide how hot, cold, wet, or windy it might be!

Date:

Astronomy

Feb. 08, 2014 Rise Set
Actual Time 6:38 AM PST 5:28 PM PST
Civil Twilight 6:12 AM PST 5:53 PM PST
Nautical Twilight 5:43 AM PST 6:22 PM PST
Astronomical Twilight 5:14 AM PST 6:51 PM PST
Moon 12:30 PM PST (2/8) 1:50 AM PST (2/8)
Length of Visible Light 11h 41m
Length of Day
10h 50m
Waxing Gibbous, 69% of the Moon is Illuminated
Feb 8
Waxing Gibbous
Feb 14
Full
Feb 22
Last Quarter
Mar 1
New
Mar 8
First Quarter

Hourly Weather History & Observations

Time (PST) Temp. Dew Point Humidity Pressure Visibility Wind Dir Wind Speed Gust Speed Precip Events Conditions
12:52 AM 61.0 °F 50.0 °F 67% 30.21 in 10.0 mi Calm Calm - N/A   Mostly Cloudy
1:52 AM 62.1 °F 50.0 °F 65% 30.21 in 10.0 mi Calm Calm - N/A   Mostly Cloudy
2:52 AM 57.9 °F 48.0 °F 70% 30.19 in 10.0 mi East 8.1 mph - N/A   Scattered Clouds
3:52 AM 57.0 °F 48.0 °F 72% 30.19 in 10.0 mi Calm Calm - N/A   Scattered Clouds
4:52 AM 55.9 °F 48.0 °F 75% 30.20 in 10.0 mi Calm Calm - N/A   Scattered Clouds
5:52 AM 55.0 °F 46.9 °F 74% 30.21 in 10.0 mi North 3.5 mph - N/A   Scattered Clouds
6:52 AM 55.9 °F 46.9 °F 72% 30.23 in 10.0 mi Calm Calm - N/A   Mostly Cloudy
7:52 AM 59.0 °F 48.9 °F 69% 30.25 in 10.0 mi NNW 4.6 mph - N/A   Mostly Cloudy
8:52 AM 64.9 °F 50.0 °F 58% 30.28 in 10.0 mi North 6.9 mph - N/A   Scattered Clouds
9:52 AM 66.9 °F 48.9 °F 52% 30.27 in 10.0 mi North 9.2 mph - N/A   Scattered Clouds
10:52 AM 69.1 °F 46.9 °F 45% 30.25 in 10.0 mi NNW 10.4 mph - N/A   Mostly Cloudy
11:52 AM 68.0 °F 48.0 °F 49% 30.24 in 10.0 mi NW 17.3 mph - N/A   Mostly Cloudy
12:52 PM 68.0 °F 48.9 °F 50% 30.21 in 10.0 mi NW 12.7 mph - N/A   Scattered Clouds
1:52 PM 68.0 °F 48.9 °F 50% 30.20 in 10.0 mi WNW 13.8 mph - N/A   Scattered Clouds
2:52 PM 66.9 °F 48.9 °F 52% 30.19 in 10.0 mi WNW 15.0 mph - N/A   Scattered Clouds
3:52 PM 66.0 °F 51.1 °F 59% 30.19 in 10.0 mi NW 18.4 mph - N/A   Scattered Clouds
4:52 PM 64.9 °F 51.1 °F 61% 30.19 in 10.0 mi NNW 17.3 mph - N/A   Scattered Clouds
5:52 PM 63.0 °F 52.0 °F 67% 30.20 in 10.0 mi NNW 12.7 mph - N/A   Scattered Clouds
6:52 PM 63.0 °F 52.0 °F 67% 30.21 in 10.0 mi North 12.7 mph - N/A   Scattered Clouds
7:52 PM 62.1 °F 53.1 °F 72% 30.21 in 10.0 mi NNW 12.7 mph - N/A   Scattered Clouds
8:52 PM 62.1 °F 53.1 °F 72% 30.22 in 10.0 mi NNW 9.2 mph - N/A   Scattered Clouds
9:32 PM 63.0 °F 53.1 °F 70% 30.23 in 10.0 mi NNW 12.7 mph - N/A   Mostly Cloudy
9:52 PM 63.0 °F 53.1 °F 70% 30.23 in 10.0 mi NNW 11.5 mph - N/A   Mostly Cloudy
10:52 PM 63.0 °F 53.1 °F 70% 30.23 in 10.0 mi NNW 9.2 mph - N/A   Mostly Cloudy
11:52 PM 63.0 °F 54.0 °F 72% 30.22 in 10.0 mi North 9.2 mph - N/A   Overcast